TimeCDT,TemperatureF,Dew PointF,Humidity,Sea Level PressureIn,VisibilityMPH,Wind Direction,Wind SpeedMPH,Gust SpeedMPH,PrecipitationIn,Events,Conditions,WindDirDegrees,DateUTC
12:53 AM,66.9,63.0,87,30.01,9.0,Calm,Calm,-,N/A,,Clear,0,2012-10-06 05:53:00
1:53 AM,64.9,63.0,93,30.00,8.0,Calm,Calm,-,N/A,,Clear,0,2012-10-06 06:53:00
2:53 AM,68.0,63.0,84,29.99,10.0,Calm,Calm,-,N/A,,Mostly Cloudy,0,2012-10-06 07:53:00
3:44 AM,66.2,62.6,88,30.03,9.0,NNW,6.9,-,N/A,,Overcast,330,2012-10-06 08:44:00
3:53 AM,66.0,63.0,90,30.01,8.0,NW,5.8,-,N/A,,Overcast,320,2012-10-06 08:53:00
4:04 AM,64.4,62.6,94,30.03,6.0,NW,9.2,-,N/A,,Overcast,320,2012-10-06 09:04:00
4:53 AM,62.1,61.0,96,30.02,7.0,North,8.1,-,N/A,,Overcast,350,2012-10-06 09:53:00
5:53 AM,57.9,55.9,93,30.04,10.0,North,8.1,-,N/A,,Overcast,350,2012-10-06 10:53:00
6:18 AM,57.2,53.6,88,30.08,10.0,North,5.8,-,N/A,,Overcast,350,2012-10-06 11:18:00
6:53 AM,55.9,53.1,90,30.06,10.0,North,4.6,-,N/A,,Overcast,360,2012-10-06 11:53:00
7:53 AM,55.0,53.1,93,30.08,10.0,North,6.9,-,N/A,,Overcast,350,2012-10-06 12:53:00
8:53 AM,55.9,52.0,87,30.10,10.0,Variable,5.8,-,N/A,,Overcast,0,2012-10-06 13:53:00
9:53 AM,57.0,52.0,83,30.10,10.0,Variable,4.6,-,N/A,,Overcast,0,2012-10-06 14:53:00
10:28 AM,57.2,51.8,82,30.13,10.0,NNW,5.8,-,N/A,,Overcast,330,2012-10-06 15:28:00
10:53 AM,57.9,52.0,81,30.10,10.0,North,8.1,-,N/A,,Overcast,10,2012-10-06 15:53:00
11:53 AM,60.1,53.1,78,30.09,10.0,North,4.6,-,N/A,,Overcast,360,2012-10-06 16:53:00
12:53 PM,64.0,54.0,70,30.07,10.0,North,5.8,-,N/A,,Overcast,350,2012-10-06 17:53:00
1:08 PM,62.6,53.6,72,30.08,10.0,NNW,5.8,-,N/A,,Overcast,340,2012-10-06 18:08:00
1:53 PM,64.9,55.0,70,30.05,10.0,Variable,5.8,-,N/A,,Overcast,0,2012-10-06 18:53:00
2:26 PM,66.2,55.4,68,30.06,10.0,Variable,6.9,-,N/A,,Overcast,0,2012-10-06 19:26:00
2:53 PM,66.0,55.9,70,30.03,10.0,WNW,6.9,-,N/A,,Overcast,290,2012-10-06 19:53:00
3:44 PM,66.2,55.4,68,30.05,10.0,NW,9.2,-,N/A,,Overcast,320,2012-10-06 20:44:00
3:53 PM,64.9,55.0,70,30.03,10.0,NNW,5.8,-,N/A,,Overcast,330,2012-10-06 20:53:00
4:40 PM,60.8,53.6,77,30.05,10.0,NNW,8.1,16.1,N/A,,Overcast,340,2012-10-06 21:40:00
4:53 PM,60.1,53.1,78,30.04,10.0,NW,9.2,17.3,N/A,,Overcast,320,2012-10-06 21:53:00
5:20 PM,57.2,51.8,82,30.06,10.0,NW,8.1,17.3,N/A,,Overcast,320,2012-10-06 22:20:00
5:53 PM,57.9,51.1,78,30.06,10.0,Variable,5.8,-,N/A,,Overcast,0,2012-10-06 22:53:00
6:53 PM,55.9,50.0,80,30.07,10.0,North,5.8,-,N/A,,Overcast,360,2012-10-06 23:53:00
7:53 PM,55.9,50.0,80,30.09,10.0,North,6.9,-,N/A,,Overcast,360,2012-10-07 00:53:00
8:53 PM,55.0,50.0,83,30.10,10.0,North,9.2,-,N/A,,Overcast,10,2012-10-07 01:53:00
9:53 PM,55.0,50.0,83,30.12,10.0,North,8.1,-,N/A,,Overcast,10,2012-10-07 02:53:00
10:36 PM,53.6,51.8,94,30.13,10.0,NNW,4.6,-,N/A,,Overcast,340,2012-10-07 03:36:00
11:53 PM,53.1,50.0,89,30.11,5.0,Variable,5.8,-,N/A,,Overcast,0,2012-10-07 04:53:00